This is the latest recevied weather packets stored in our database for station/object WA0LM. If no packets are shown the sender has not sent any weather packets the latest 1 day(s).
| Time | Temp. | Humidity | Pressure | Rain* | Wind** | Luminosity | Snow |
|---|---|---|---|---|---|---|---|
| 1778104142 | 5.56° C | 56% | 1013.7 hPa | 0 mm | - | 129 W/m² | - |
| 1778102322 | 5.56° C | 54% | 1013.7 hPa | 0 mm | - | 148 W/m² | - |
| 1778101110 | 5.56° C | 52% | 1013.9 hPa | 0 mm | - | 157 W/m² | - |
| 1778100806 | 6.11° C | 58% | 1013.9 hPa | 0 mm | - | 166 W/m² | - |
| 1778100200 | 5.56° C | 52% | 1013.8 hPa | 0 mm | - | 193 W/m² | - |
| 1778097168 | 5.56° C | 56% | 1014.2 hPa | 0 mm | - | 264 W/m² | - |
| 1778096260 | 5° C | 59% | 1014.2 hPa | 0 mm | - | 303 W/m² | - |
| 1778095652 | 5° C | 57% | 1014.3 hPa | 0 mm | - | 325 W/m² | - |
| 1778094440 | 5° C | 54% | 1014.3 hPa | 0 mm | - | 407 W/m² | - |
| 1778093228 | 4.44° C | 56% | 1014.4 hPa | 0 mm | - | 328 W/m² | - |
| 1778092925 | 4.44° C | 55% | 1014.5 hPa | 0 mm | - | 351 W/m² | - |
| 1778092621 | 3.89° C | 57% | 1014.4 hPa | 0 mm | - | 351 W/m² | - |
| 1778092317 | 4.44° C | 59% | 1014.5 hPa | 0 mm | - | 383 W/m² | - |
| 1778091712 | 3.89° C | 59% | 1014.6 hPa | 0 mm | - | 331 W/m² | - |
| 1778090196 | 3.89° C | 60% | 1014.8 hPa | 0 mm | - | 367 W/m² | - |
| 1778088682 | 3.33° C | 60% | 1014.8 hPa | 0 mm | - | 333 W/m² | - |
| 1778085654 | 2.78° C | 59% | 1015.3 hPa | 0 mm | - | 260 W/m² | - |
| 1778084439 | 2.78° C | 63% | 1015.4 hPa | 0 mm | - | 186 W/m² | - |
| 1778081515 | 2.22° C | 62% | 1015.3 hPa | 0 mm | - | 171 W/m² | - |
| 1778081212 | 2.78° C | 64% | 1015.4 hPa | 0 mm | - | 182 W/m² | - |
| 1778080909 | 2.22° C | 63% | 1015.4 hPa | 0 mm | - | 176 W/m² | - |
| 1778080608 | 2.22° C | 62% | 1015.3 hPa | 0 mm | - | 154 W/m² | - |
| 1778080304 | 2.22° C | 65% | 1015.5 hPa | 0 mm | - | 157 W/m² | - |
| 1778076673 | 2.22° C | 65% | 1015.3 hPa | 0 mm | - | 112 W/m² | - |
| 1778076370 | 2.22° C | 63% | 1015.4 hPa | 0 mm | - | 108 W/m² | - |
* Rain latest hour (hover to see other rain measurements)
** Current wind speed in m/s (hover to see current wind gust speed)